Flag for India Weather past 2 weeks in Jaipur, Rajasthan, India

Now
91 °F

Scattered clouds.


Feels Like: 88 °F
Forecast: 69 / 92 °F
Wind: 3 mph from North

Location: Jaipur / Sanganer

Current Time: Oct 22, 2014 at 6:16:21 PM

Latest Report: Oct 22, 2014 at 5:00 PM


Visibility: 2 mi

Pressure: 29.95 "Hg

Humidity: 21%

Dew point: 46 °F

Location of JaipurLocation

Historic Weather in Jaipur — Graph

°F

Jaipur temperature yesterday

Maximum temperature yesterday: 93 °F (at 2:00 PM)
Minimum temperature yesterday: 70 °F (at 3:00 AM)
Average temperature yesterday: 81 °F

Past Weeks' High & Low Weather Summary

 TemperatureHumidityPressure
High95 °F (Oct 8, 1:00 PM)94% (Oct 16, 5:00 AM)30.12 "Hg (Oct 16, 5:00 AM)
Low64 °F (Oct 18, 6:00 AM)13% (Oct 11, 4:00 PM)29.65 "Hg (Oct 11, 3:00 PM)
Average80 °F48%29.94 "Hg
* Reported Oct 7 5:00 PM — Oct 22 5:00 PM, Jaipur, Weather by CustomWeather, © 2014

Note: Actual official high and low records may vary slightly from our data, if they occured in-between our weather recording intervals... More about our weather records

Advertising

Jaipur weather history for previous 24 hours

 ConditionsComfort  
Time TempWeatherWind HumidityBarometerVisibility
5:00 PM
Oct 22
91 °FScattered clouds.3 mph21%29.95 "Hg1 mi
4:00 PM93 °FHaze.6 mph19%29.95 "Hg1 mi
3:00 PM93 °FHaze.7 mph19%29.98 "Hg1 mi
2:00 PM93 °FHaze.8 mph21%30.01 "Hg1 mi
1:00 PM91 °FHaze.8 mph21%30.04 "Hg1 mi
12:00 PM90 °FHaze.9 mph26%30.07 "Hg1 mi
11:00 AM88 °FHaze.5 mph29%30.09 "Hg1 mi
10:00 AM84 °FClear.3 mph37%30.12 "Hg1 mi
9:00 AM82 °FClear.5 mph37%30.09 "Hg1 mi
8:00 AM77 °FClear.3 mph51%30.09 "Hg1 mi
7:00 AM68 °FClear.3 mph60%30.07 "Hg1 mi
6:00 AM70 °FClear.1 mph57%30.04 "Hg1 mi
5:00 AM72 °FClear.3 mph53%30.04 "Hg1 mi
4:00 AM70 °FClear.No wind60%30.01 "Hg1 mi
3:00 AM70 °FClear.No wind60%30.04 "Hg1 mi
2:00 AM72 °FClear.2 mph57%30.04 "Hg1 mi
1:00 AM75 °FClear.3 mph47%30.04 "Hg1 mi
12:00 AM73 °FClear.No wind53%30.04 "Hg1 mi
10:00 PM
Oct 21
79 °FClear.3 mph42%30.04 "Hg1 mi
9:00 PM79 °FClear.2 mph48%30.04 "Hg1 mi
8:00 PM82 °FClear.No wind37%30.01 "Hg1 mi
7:00 PM82 °FHaze.1 mph35%30.01 "Hg1 mi
6:00 PM88 °FHaze.2 mph27%29.98 "Hg2 mi
Weather by CustomWeather, © 2014

See weather overviewHow to use our weather pages